Theta_e
314 313 311 309 308 307 306 306 305 305 309 310 311 312 312 312 312 312 313 315 315 318 315 317 317 318 318 318 321 319 321 321 322 327 329 329 330 327 326 325 325 324 325 328 330 334 335 329 332 331 326 326 332 331
314 313 311 309 307 306 306 305 305 305 309 310 311 311 311 311 311 311 312 313 313 314 316 317 317 317 317 318 316 315 318 319 320 323 324 326 331 328 327 332 329 332 328 329 329 330 328 330 331 329 326 327 332 340
314 313 311 309 307 306 306 305 305 305 310 310 311 310 310 309 309 309 309 311 313 310 311 311 314 317 316 317 317 317 315 317 318 317 320 325 329 328 333 331 330 328 328 331 330 329 332 332 330 331 332 333 330 342
314 313 311 309 307 306 305 304 305 306 308 310 311 310 309 309 309 308 308 309 310 313 318 314 315 315 315 315 315 316 317 316 314 314 320 321 328 323 330 329 328 328 329 329 329 328 330 332 332 332 336 341 341 342
313 313 311 308 306 306 304 304 304 307 309 310 310 310 309 309 309 309 310 312 310 312 317 313 312 314 314 315 314 314 317 315 314 316 316 318 319 321 322 324 326 328 328 330 330 326 329 329 332 333 334 339 340 340
313 312 310 307 306 305 304 304 305 307 308 310 309 309 308 308 308 309 310 313 312 312 315 316 310 311 315 318 320 320 318 317 317 318 318 316 317 321 322 323 321 323 326 325 328 328 328 329 330 331 331 338 340 339
312 311 309 307 306 305 303 304 305 307 308 309 308 307 306 306 306 307 310 313 313 310 315 314 312 312 315 318 317 316 317 317 318 320 319 321 321 319 320 325 323 323 324 327 326 328 329 329 332 332 332 330 337 336
312 311 308 306 305 303 303 304 305 306 307 305 305 305 306 306 307 309 312 312 312 310 311 315 314 313 316 318 318 314 318 315 316 318 317 318 317 317 322 321 320 322 322 322 327 327 326 327 328 330 329 334 339 335
311 309 307 306 305 303 303 304 305 306 305 304 304 307 309 309 309 314 313 312 311 312 314 316 317 316 311 313 313 313 314 317 313 319 318 318 319 322 321 319 318 319 320 321 321 323 328 329 330 329 329 336 337 332
310 308 306 305 303 302 303 304 306 306 304 306 309 310 312 313 311 312 312 314 312 313 309 313 309 312 314 317 319 320 318 317 324 320 318 324 321 318 319 320 317 319 321 322 324 329 328 330 331 329 330 329 333 331
309 307 305 304 302 303 304 305 306 304 307 308 308 307 310 309 312 315 318 317 315 315 311 312 311 315 317 320 321 320 321 319 326 325 325 327 326 324 324 324 323 322 319 324 326 327 326 328 329 328 330 331 331 330
307 306 305 302 302 303 304 304 304 304 307 304 305 306 308 308 316 318 319 319 318 316 316 316 318 316 319 317 319 319 321 323 326 326 330 331 325 323 324 324 326 325 320 326 328 330 329 329 329 327 326 327 328 331
306 305 303 302 302 304 304 304 304 303 303 305 308 310 312 314 315 320 319 321 324 323 321 321 322 320 318 318 320 321 323 325 323 327 332 329 325 323 325 325 326 324 319 323 329 330 330 330 330 329 327 326 326 329
305 304 302 301 304 304 304 303 303 303 306 309 313 311 316 319 316 315 319 322 320 320 321 320 322 323 320 321 320 323 323 324 326 330 331 326 324 324 325 325 325 325 323 323 328 329 328 329 328 329 329 329 328 331
304 302 301 301 304 304 303 302 303 303 306 312 313 313 312 313 316 318 318 320 320 320 319 323 323 323 324 323 323 324 326 327 331 332 328 326 324 326 325 325 326 324 325 325 326 328 328 329 329 329 330 329 329 331
301 301 300 302 304 303 303 303 303 306 308 311 310 312 311 315 317 315 314 318 314 318 317 319 325 327 326 325 326 326 328 330 328 327 327 325 326 326 326 325 324 326 326 326 326 327 328 329 328 328 329 328 330 331
300 302 305 303 303 304 303 305 306 307 310 311 310 308 309 312 312 312 311 315 312 314 318 320 326 327 325 328 328 327 325 325 326 326 325 325 326 326 324 324 326 327 326 327 329 327 328 329 328 326 327 326 328 329
304 306 305 303 305 304 304 306 308 311 311 309 309 308 308 309 310 311 315 313 316 318 316 322 321 324 326 327 324 322 322 321 322 323 324 324 324 324 324 326 325 326 326 327 329 328 329 329 328 326 326 328 330 331
305 306 305 304 304 306 305 306 307 309 309 307 307 306 309 312 309 311 310 312 314 315 318 321 322 325 326 321 321 320 320 320 321 320 321 321 323 323 323 325 325 323 325 326 325 325 324 326 326 326 327 329 328 329
307 307 306 304 305 308 310 309 307 307 311 310 308 310 309 310 310 311 314 315 315 316 318 320 319 322 320 317 320 320 318 317 319 319 319 320 321 322 323 323 324 323 323 324 324 325 325 325 325 325 326 327 328 328
306 306 306 306 305 306 307 311 313 311 310 312 310 314 314 312 313 316 318 317 318 320 320 315 315 316 315 317 320 319 318 318 318 318 319 321 320 321 322 323 323 323 323 322 322 322 322 321 323 324 324 324 324 324
307 306 305 306 307 309 309 308 309 311 310 311 312 312 316 317 317 316 314 316 315 314 315 317 316 317 318 318 318 321 323 321 320 319 320 319 319 322 323 323 323 323 323 322 322 322 323 325 327 328 328 329 328 328
307 308 309 307 308 310 309 310 313 313 317 319 314 314 315 316 316 312 317 315 316 315 315 315 319 320 319 321 322 322 323 322 318 319 320 321 322 324 324 324 324 323 323 322 323 323 323 324 324 323 324 326 329 329
308 309 311 313 309 307 310 314 312 314 317 315 313 316 315 314 313 315 317 314 314 314 313 315 317 318 318 318 317 317 321 323 321 320 321 320 319 323 324 323 323 322 322 321 321 322 322 321 322 322 322 324 325 326
310 307 306 304 308 315 315 317 318 319 318 316 318 318 319 318 321 321 321 319 317 317 316 315 315 316 318 318 317 318 323 323 320 318 320 323 323 323 320 320 320 320 320 320 320 319 319 320 320 320 321 321 320 320
306 306 307 313 314 315 319 319 317 316 318 318 318 317 318 321 323 320 318 317 317 319 319 319 320 320 317 315 316 318 322 323 323 320 320 323 323 319 317 315 316 317 319 319 319 319 319 318 318 318 318 319 319 319
306 308 308 310 313 315 316 316 316 317 319 321 320 322 320 323 321 319 317 317 317 317 319 319 320 319 319 319 322 322 321 323 322 321 322 322 317 314 314 314 314 318 318 318 317 317 317 317 316 316 316 316 317 317
309 311 312 313 313 313 316 317 319 319 317 317 320 324 324 322 322 319 318 318 319 321 323 323 323 322 322 323 321 319 320 320 320 320 319 318 318 316 316 316 317 316 316 315 315 315 314 314 313 314 314 314 314 315
311 310 312 315 315 315 316 318 318 316 314 317 318 319 321 318 317 317 319 321 321 320 321 322 323 322 322 322 320 319 319 320 317 315 315 313 313 316 317 316 317 317 317 317 317 317 317 317 317 316 315 313 312 313
310 312 315 317 319 320 319 315 316 314 314 313 314 316 318 319 320 320 321 321 321 321 321 322 324 324 320 320 319 320 320 317 316 316 313 313 316 318 317 316 316 316 316 316 316 318 319 317 316 316 316 316 316 315
311 313 315 316 318 319 318 315 313 314 315 316 316 319 320 318 319 321 320 321 322 321 321 320 321 323 322 321 320 318 319 320 320 318 317 317 317 318 317 317 317 316 316 316 318 317 318 318 319 319 318 317 317 317
312 314 319 321 320 317 318 321 321 318 316 318 316 315 315 317 319 316 319 321 321 320 321 321 319 321 322 321 321 319 319 318 319 319 319 318 318 318 318 318 319 319 318 318 319 317 317 318 317 316 316 316 316 316
312 314 320 321 320 320 318 321 320 317 317 317 317 318 317 317 319 314 319 319 321 321 320 320 321 320 320 320 319 318 318 318 319 318 318 318 318 318 318 318 318 318 318 318 317 316 316 318 318 316 312 309 309 309
Wind_Speed
16 13 12 12 12 12 12 12 13 12 11 11 12 12 12 13 13 14 6 3 5 2 6 7 5 5 2 2 2 4 6 3 4 4 2 2 1 3 3 2 2 5 4 3 2 2 6 4 1 5 5 6 3 4
17 15 13 12 12 11 12 12 12 10 10 10 11 12 11 12 12 12 4 8 11 5 6 22 23 26 23 19 3 3 3 1 4 2 2 1 1 2 1 2 4 1 5 3 6 5 4 5 0 3 4 4 3 7
18 15 13 12 12 11 11 11 11 9 8 9 11 11 12 12 12 12 10 11 6 2 6 4 5 5 10 19 25 4 4 6 3 5 3 2 2 2 2 4 3 3 3 2 4 3 3 4 6 7 4 3 3 3
18 16 14 12 11 11 11 10 11 9 9 8 10 11 12 13 12 13 10 8 5 4 3 6 8 19 15 13 19 30 20 0 2 2 2 3 2 3 4 4 2 4 3 0 4 7 5 5 6 6 7 12 8 5
19 16 14 12 11 10 10 9 8 7 7 9 10 11 12 14 15 17 13 4 6 1 3 6 21 9 17 11 14 24 22 6 1 1 2 4 2 1 2 2 4 4 6 3 5 6 3 6 3 8 3 7 8 6
18 16 15 12 11 10 9 8 7 6 9 9 10 11 13 14 16 9 2 5 3 3 2 4 5 7 19 5 9 4 3 3 3 4 4 3 4 5 4 4 6 8 6 7 5 4 6 7 6 5 6 5 12 8
18 16 14 11 10 9 9 8 7 7 9 10 11 10 12 13 13 3 3 1 4 12 2 4 5 5 8 3 3 3 3 0 2 1 2 3 3 4 2 8 6 6 7 6 8 3 6 6 5 4 2 4 5 10
18 15 13 11 10 9 8 8 7 7 8 9 11 13 14 15 12 5 7 6 8 4 1 3 4 5 8 3 3 3 3 3 2 2 1 3 1 3 5 9 15 14 16 13 10 9 8 6 3 5 3 3 9 10
17 15 13 11 10 9 8 6 6 7 9 11 14 13 4 1 2 1 3 6 2 2 2 2 2 4 5 2 2 3 2 2 2 2 3 3 2 5 5 5 7 9 12 18 18 9 12 11 13 4 5 4 7 8
16 14 13 11 10 8 7 6 6 7 9 10 5 2 1 0 7 7 2 1 0 1 0 3 2 3 1 2 2 3 1 2 2 4 1 3 4 6 11 9 8 12 10 9 5 7 8 10 14 8 8 6 7 10
16 14 12 12 9 7 6 3 3 5 1 2 3 1 5 8 1 2 1 2 2 2 3 3 4 3 1 1 2 1 2 2 3 2 2 3 3 3 3 9 11 12 13 9 7 6 9 7 6 5 5 6 5 8
15 13 12 11 8 8 6 3 3 2 1 3 6 6 4 2 2 2 3 2 4 4 3 3 4 5 2 1 1 2 2 2 5 3 3 3 3 4 8 13 17 14 10 10 8 8 7 5 5 5 5 6 10 16
15 13 11 10 9 9 6 4 3 3 6 3 1 2 1 1 0 4 4 3 2 3 3 3 3 2 1 1 2 2 3 4 5 2 3 3 7 10 11 12 15 16 7 10 6 5 6 5 9 10 10 15 16 18
14 12 10 9 9 9 7 6 4 3 2 2 2 3 3 3 4 4 2 2 4 4 4 3 2 2 2 1 1 3 3 3 3 3 3 3 10 14 13 9 11 11 5 7 6 6 6 7 6 10 14 15 14 15
11 9 9 10 9 9 7 6 5 4 2 2 2 4 5 4 3 3 3 3 4 3 1 1 2 2 1 2 2 3 3 4 3 3 5 9 16 14 9 8 7 6 4 4 5 7 6 8 6 8 12 8 17 19
10 7 11 9 10 9 7 6 5 3 3 2 4 3 4 2 3 3 2 4 3 2 1 1 2 1 2 2 2 3 4 3 4 5 8 13 16 10 5 1 4 3 3 4 3 1 4 8 6 4 7 4 14 13
11 4 5 12 11 9 9 5 5 3 3 3 4 3 3 4 5 4 2 3 1 2 1 1 2 0 2 2 3 3 2 4 6 6 6 12 10 10 8 7 7 6 8 5 7 8 1 6 14 12 7 5 12 11
4 4 9 15 14 11 5 4 2 3 5 4 3 3 3 3 3 4 4 1 1 2 2 3 1 1 2 3 4 3 3 4 4 4 4 7 9 9 8 9 11 14 11 13 12 12 9 7 4 5 15 8 9 9
7 7 13 14 12 4 4 3 4 3 5 3 4 3 3 3 4 5 3 4 5 3 1 1 1 3 3 4 4 4 4 2 3 4 4 5 10 9 11 11 19 17 16 12 17 14 15 17 13 14 16 19 12 14
4 10 13 15 10 2 3 3 4 3 3 3 3 3 3 3 3 3 3 3 2 2 0 2 4 3 4 3 4 3 3 3 3 4 4 4 10 11 13 13 10 18 11 15 22 24 17 13 15 20 23 12 13 11
5 8 10 11 7 4 2 2 3 4 3 3 3 1 3 1 2 2 2 3 1 2 3 4 3 3 4 4 4 3 3 1 1 2 2 2 5 6 9 15 13 10 10 6 3 5 5 7 17 19 16 12 11 11
5 10 5 6 3 3 3 7 3 3 1 3 3 0 3 2 2 2 3 1 2 2 2 2 2 2 3 4 4 5 5 3 2 1 3 1 4 5 5 8 8 4 9 10 7 7 10 11 15 17 17 14 14 15
12 5 3 4 2 3 5 3 3 3 3 2 3 3 2 3 2 3 1 2 3 2 2 3 4 6 6 10 7 6 5 7 3 4 3 3 7 12 14 15 16 7 6 11 12 14 14 14 15 15 13 13 16 16
4 2 3 4 5 4 2 3 3 3 1 3 3 4 3 2 3 2 2 2 3 2 2 3 3 4 4 2 1 3 6 5 6 1 1 0 2 8 16 14 15 14 11 7 9 12 13 13 11 10 9 9 10 11
2 3 3 4 3 3 3 3 2 2 1 1 2 3 2 2 2 1 2 3 2 2 2 1 2 2 1 3 4 6 4 10 5 3 3 10 16 11 10 12 16 12 9 12 12 13 11 11 14 14 15 13 14 12
1 4 6 3 2 2 1 3 0 1 1 1 3 2 2 2 2 3 3 2 2 2 2 2 1 2 2 1 3 4 7 1 5 4 5 11 13 14 5 4 3 10 10 12 15 16 16 16 16 17 16 16 15 16
2 4 4 3 2 2 1 0 2 1 2 2 2 1 1 2 2 2 2 3 3 5 7 6 1 3 1 5 4 5 7 13 11 12 15 20 20 25 25 14 8 14 18 21 21 22 22 21 20 20 20 20 18 17
4 3 3 1 1 0 1 1 2 2 2 2 0 2 2 3 4 2 3 8 9 4 10 11 9 6 7 8 8 12 18 22 24 28 27 20 15 16 17 17 18 18 19 20 21 21 22 23 22 21 21 20 19 19
3 3 1 1 2 2 2 2 2 2 2 1 1 2 3 3 2 3 5 9 12 3 6 8 8 7 7 10 12 13 16 20 17 9 9 4 4 8 9 7 7 8 8 10 10 10 10 12 13 15 16 18 17 17
3 3 2 3 2 2 2 4 2 2 2 3 2 2 3 3 6 7 8 6 4 4 6 7 5 4 3 7 6 6 8 10 17 20 6 5 8 12 9 9 7 7 6 5 5 5 5 4 4 5 5 6 8 9
1 2 1 3 3 3 3 2 0 1 1 2 2 2 3 3 7 4 2 3 10 6 7 5 5 7 6 6 6 3 2 6 7 12 10 13 12 10 9 10 10 8 9 8 3 1 4 7 5 5 5 5 7 9
3 4 2 2 2 2 2 2 2 1 1 1 2 2 3 2 3 3 1 14 11 6 7 8 8 10 11 9 8 5 8 7 8 13 12 15 16 13 11 6 4 6 10 8 4 3 4 12 12 10 11 9 11 12
2 2 2 1 2 2 2 2 2 1 1 2 2 2 2 2 3 3 3 12 15 14 12 12 12 11 11 11 11 13 12 12 11 11 10 10 12 14 12 9 4 2 4 6 2 3 4 12 16 15 15 16 17 20
Wind_Direction
284 287 289 295 304 314 322 327 330 336 337 338 340 345 346 350 352 354 309 39 3 281 274 230 255 200 267 174 228 303 341 347 351 51 70 289 193 283 316 246 221 162 151 206 140 186 257 206 211 162 220 298 225 145
273 276 279 286 295 306 314 319 324 328 335 327 335 339 344 345 345 349 312 325 321 221 258 289 270 261 244 227 156 259 235 20 254 63 356 323 308 7 289 257 342 193 182 215 177 222 263 313 324 227 201 213 227 136
262 265 267 275 286 297 306 312 318 318 320 318 324 333 338 341 341 341 316 327 333 319 293 323 241 277 304 244 222 189 257 206 246 188 177 228 259 128 261 262 323 316 156 194 360 226 226 302 282 271 117 101 355 127
254 255 259 267 277 288 298 306 314 314 312 308 312 324 329 329 333 329 308 288 303 279 291 282 304 297 279 255 226 219 233 235 89 73 230 242 202 172 209 229 184 228 342 45 277 288 305 271 267 272 74 86 70 80
247 248 250 256 269 279 291 299 308 308 310 300 308 319 323 324 327 322 305 305 206 241 300 285 310 288 310 305 255 218 224 229 199 205 159 228 234 144 222 118 223 195 212 172 236 232 221 256 268 302 111 119 134 138
239 243 245 250 260 271 282 289 297 305 287 297 309 317 317 320 329 334 14 57 128 207 284 305 297 297 318 70 86 84 196 183 168 163 215 240 244 158 226 234 233 216 216 189 227 216 232 264 276 266 297 163 157 153
230 236 240 244 253 263 271 280 292 288 297 303 306 313 315 317 315 269 259 170 241 335 284 305 311 279 308 9 12 1 9 29 176 224 225 213 241 143 206 244 223 249 234 226 231 216 279 236 261 218 260 324 149 117
226 228 232 237 246 258 261 278 291 280 289 304 310 311 309 302 289 293 4 318 240 220 252 282 276 328 2 354 333 2 337 5 314 259 314 198 308 190 245 262 237 227 252 251 225 201 225 269 255 222 259 268 169 150
221 223 229 232 237 250 253 270 286 280 298 308 311 312 315 254 244 316 337 29 164 199 270 277 283 273 351 335 283 336 52 325 297 244 247 126 233 225 241 255 244 224 213 230 247 216 227 240 263 193 227 186 184 177
215 220 222 229 234 241 245 270 284 282 307 313 314 350 312 225 303 298 177 196 291 271 150 254 227 268 352 333 298 325 31 254 280 244 166 210 249 255 291 293 272 277 249 226 202 224 213 229 233 202 203 198 187 184
211 212 216 224 229 224 233 254 264 307 321 324 339 264 314 310 287 220 230 199 145 244 215 234 215 252 315 232 280 237 299 277 269 265 219 231 253 218 271 275 277 294 247 233 215 220 194 204 234 177 168 204 200 179
206 210 211 217 220 212 209 223 243 284 333 325 302 301 301 309 229 263 228 179 201 236 197 210 235 205 228 211 254 264 268 278 256 349 249 243 247 242 323 318 318 311 248 210 206 212 215 178 219 205 175 205 210 216
199 204 210 213 205 205 195 200 219 265 302 274 266 258 209 197 79 220 218 220 237 203 223 217 264 214 155 192 236 274 263 250 336 257 286 289 277 302 308 315 312 318 209 202 188 200 229 228 232 220 212 222 231 213
197 199 204 209 201 197 195 203 215 250 265 238 226 264 214 202 240 204 224 289 255 240 254 213 237 219 177 189 245 256 261 305 262 258 238 333 292 293 293 285 294 305 269 177 175 202 250 266 221 221 232 228 218 201
189 197 205 212 201 191 196 206 209 219 245 253 208 240 231 244 269 273 245 235 252 267 139 266 245 170 135 273 223 288 268 265 276 309 293 297 290 298 271 265 273 299 330 344 201 196 199 218 241 248 245 242 213 201
174 193 225 205 189 189 187 181 187 209 255 240 232 268 256 292 261 279 284 249 240 229 114 226 247 192 219 234 252 230 291 287 296 305 313 308 325 6 14 286 288 305 333 353 105 147 260 220 215 202 144 177 139 148
167 211 166 176 163 168 175 172 184 221 251 233 248 228 256 278 255 266 244 256 195 70 273 325 273 145 143 216 239 221 254 272 302 309 309 313 335 339 336 354 16 48 26 346 126 140 185 158 152 132 126 222 88 109
161 161 163 162 165 162 187 220 249 246 249 245 238 251 215 224 255 269 261 195 180 202 133 236 189 55 359 284 294 260 275 282 282 296 304 316 337 337 340 10 26 27 9 4 76 86 90 59 74 77 93 94 133 109
165 156 162 165 161 170 168 234 207 254 246 242 251 236 231 250 238 248 254 260 230 215 220 121 237 202 219 228 244 277 284 279 299 321 319 332 345 357 358 10 36 22 23 353 74 67 53 58 61 55 74 81 75 96
126 162 170 180 185 232 229 241 200 237 266 242 231 254 212 220 248 253 258 250 212 155 280 219 216 224 209 240 213 237 255 288 337 350 338 1 6 5 14 19 32 6 352 45 70 78 58 49 66 75 77 89 95 84
125 139 161 178 197 248 266 267 232 220 252 255 261 281 259 291 279 281 302 355 116 219 221 225 248 268 255 260 251 233 287 291 6 201 267 331 350 357 9 10 25 54 44 32 51 70 124 145 113 107 119 115 107 99
145 147 135 184 206 242 239 232 229 284 254 248 302 213 278 303 325 334 310 6 241 250 219 240 269 285 301 286 265 250 274 245 241 302 8 74 13 21 22 11 17 44 56 41 53 76 82 97 104 104 101 102 104 108
154 164 161 164 218 238 256 191 218 231 226 274 355 327 335 335 282 322 279 237 260 249 257 263 278 280 264 292 293 283 278 218 215 247 245 330 61 47 39 37 43 53 94 58 69 79 79 82 78 81 86 91 102 103
139 200 211 192 202 255 260 234 214 260 56 23 360 313 310 283 328 34 283 273 250 256 311 293 296 309 320 342 306 278 282 221 213 258 190 74 59 60 54 32 51 59 71 86 74 76 73 67 68 66 62 75 100 106
185 256 120 273 249 250 247 263 183 44 344 347 336 291 280 346 298 283 260 272 262 252 247 326 64 42 331 302 294 293 316 218 205 132 172 138 123 115 83 69 53 46 74 88 83 81 69 74 72 76 84 84 88 80
184 228 171 229 215 191 327 307 45 205 331 283 239 266 297 312 308 287 246 244 248 259 247 206 116 10 354 244 287 315 332 324 186 117 160 153 122 103 87 74 54 48 84 103 102 95 84 78 79 79 76 80 83 88
283 269 235 233 231 232 359 86 106 202 248 235 241 247 214 311 302 271 284 242 234 259 284 321 182 175 287 338 17 44 71 91 69 88 114 133 115 111 102 104 95 103 102 98 94 93 93 90 88 87 85 84 83 86
243 251 211 301 99 277 294 269 217 223 239 256 242 258 248 208 214 261 256 284 268 21 28 70 66 71 88 73 74 91 102 101 101 103 108 99 108 115 110 109 108 104 99 95 95 92 89 88 88 87 85 84 83 86
251 257 146 1 51 298 236 233 243 229 207 140 185 272 267 250 228 216 277 276 300 276 74 83 81 90 85 78 86 88 123 124 112 94 85 77 58 90 131 121 122 116 113 110 98 85 86 92 96 96 98 99 101 101
248 154 197 215 207 242 250 181 212 165 174 194 217 301 299 279 282 322 282 263 200 165 138 114 122 155 136 124 128 121 129 136 135 136 145 166 169 149 154 168 160 152 138 120 94 72 65 84 104 118 119 121 117 115
237 133 252 205 243 238 230 181 139 72 218 240 237 204 254 289 311 331 358 133 145 137 158 173 184 197 205 202 187 177 272 219 225 192 163 164 169 183 189 200 209 198 188 181 193 297 160 110 92 96 142 167 192 195
196 206 134 256 292 309 140 132 125 122 291 342 292 258 295 294 286 289 69 155 132 160 204 216 225 237 222 206 193 215 205 204 173 175 191 194 205 215 222 209 222 208 182 185 203 231 187 133 118 113 127 116 118 119
230 164 166 34 21 6 293 180 131 158 250 252 259 228 238 236 282 270 128 192 186 190 200 203 197 198 198 192 165 147 145 149 153 160 166 176 194 215 238 222 233 212 158 152 203 303 170 139 122 122 127 122 117 115